Current weather by "City, St" or "zip code"  
 

Current Conditions: Jefferson - Ashe County Airport, NC

Partly Cloudy


64.0 F

Last Updated on Sep 18 2020, 10:55 am EDT
Humidity: 73%
Wind Speed: N 8.1 G 18.4 mph
Barometer 30.07 in
Dewpoint: 55.4 F
Visibility: 10.00 mi
Precip: --
Heat Index: NA
Wind Chill: NA
Current conditions at:

Jefferson - Ashe County Airport, NC (KGEV)

Lat: 36.43333 Lon: 81.41667

Local Radar Image active severe weather and emergency alerts image image weather storm and storm spotter reports image weather observation monitoring service image
Local
Radar
Active
Alerts
Storm Reports Obs
Monitoring

Sign-up For Email & Text Message Weather Alert Notification Services



Advertise Here

Observation History for Jefferson - Ashe County Airport, NC


Time Wind
(mph)
Vis
(mi)
Weather Precip (in) Temperature (F) Relative
Humidity
Wind
Chill
(F)
Heat
Index
(F)
Pressure
Air Dwpt altimeter
(in)
sea level
(mb)
Rmks
10:55 am EDT N 8.1 G 18.4 10.00 Partly Cloudy -- 64.0 55.4 73% NA NA 30.07 M
9:55 am EDT N 8.1 10.00 Mostly Cloudy -- 63.0 57.7 84% 63 NA 30.04 M
8:55 am EDT N 9.2 G 18.4 10.00 Partly Cloudy -- 61.0 57.6 89% 60 NA 30.02 M
7:55 am EDT N 10.4 G 18.4 10.00 Overcast -- 59.0 57.7 94% 57 NA 30.02 M
6:55 am EDT NW 5.8 10.00 Overcast -- 59.0 58.5 98% 58 NA 29.99 M
5:55 am EDT N 10.4 10.00 Overcast -- 59.0 58.6 99% 57 NA 29.97 M
4:55 am EDT N 10.4 10.00 Overcast -- 59.0 59.0 100% 57 NA 29.96 M
3:55 am EDT N 6.9 10.00 Overcast -- 59.0 59.2 100% 58 NA 29.95 M
2:55 am EDT NW 6.9 10.00 Overcast -- 59.0 59.2 100% 58 NA 29.96 M
1:55 am EDT NW 6.9 10.00 Overcast -- 59.0 59.4 100% 58 NA 29.96 M
12:55 am EDT N 8.1 10.00 Overcast -- 59.0 59.4 100% 58 NA 29.97 M
11:55 pm EDT N 6.9 10.00 Overcast -- 59.0 59.0 100% 58 NA 29.97 M
10:55 pm EDT N 5.8 10.00 Overcast -- 59.0 59.2 100% 58 NA 29.97 M
9:55 pm EDT NE 5.8 10.00 Overcast -- 59.0 59.0 99% 58 NA 29.97 M
8:55 pm EDT N 6.9 10.00 Light Drizzle -- 60.0 59.5 100% 59 NA 29.96 M
7:55 pm EDT NE 5.8 10.00 Light Rain 00.01 60.0 59.5 100% 60 NA 29.96 M
6:55 pm EDT N 8.1 10.00 Rain -- 60.0 60.1 100% 59 NA 29.95 M
5:55 pm EDT NE 8.1 7.00 Light Drizzle 00.02 60.0 60.3 100% 59 NA 29.95 M
4:55 pm EDT NE 6.9 10.00 Light Rain -- 61.0 60.8 100% 60 NA 29.95 M
3:55 pm EDT N 5.8 5.00 Rain -- 60.0 60.1 100% 60 NA 29.96 M
2:55 pm EDT N 3.5 10.00 Light Rain 00.03 60.0 60.1 100% NA NA 29.98 M
1:55 pm EDT NE 3.5 10.00 Light Rain -- 60.0 59.9 100% NA NA 30.02 M
12:55 pm EDT N 3.5 4.00 Rain -- 59.0 59.4 100% NA NA 30.04 M

Regional Weather Observation


Jefferson - Ashe County Airport, NC (KGEV)

Partly Cloudy
64.0 F

Watauga County Hospital Heliport, NC (KTNB)

NULL
64.0 F

North Wilkesboro, Wilkes County Airport, NC (KUKF)

Fair
72.0 F

Abingdon, VA (KVJI)

Mostly Cloudy
65.0 F

Elizabethton Municipal Airport, TN (K0A9)

Mostly Cloudy
66.0 F

Tazewell County Airport, VA (KJFZ)

Overcast
60.0 F